OBJECT G, 40905

Orbit data source: Space-Track

You're viewing an Uncataloged Satellite

Recently launched and/or uncataloged satellites may have evolving metadata. Metadata may include but not limited to: Owner, Maufacturer, Bus, Motor, and Mission.

OBJECT G, 40905 is a satellite owned by Tsinghua (CN) in SSO that was launched on Sat, 19 Sep 2015 UTC via a CHANG ZHENG 6 launch vehicle from the Taiyaun Space Center, China (TSC). Unknown objects in Earth's orbit typically refer to objects detected orbiting the Earth but have not yet been identified or cataloged. These objects could be anything from previously untracked satellites, spent rocket stages, debris from satellite collisions, or even natural meteoroids temporarily captured by Earth's gravity.

Loading next visibility...
OBJECT G details
Identifier
40905, 2015-049G
Orbit
SSO
Last TLE update11 hours ago
Origin
Flag of CNTsinghua (CN / PRC)
ManufacturerTsinghua
MissionNon-operational Amateur Communications
Bus & MotorUnknown
Mass20 kg wet, 20 kg dry
Launch date (UTC)
2015-09-19 (9 years ago)
Launch vehicle
CHANG ZHENG 6
Launch site
Taiyaun Space Center, China (TSC)
Object typeUnknown
Shape & HBRBox, 0.4 m
Radar Cross Section0.240 m², Medium (>0.1 m² and < 1m²)

Expand to show TLE details & history

TLE from 11 hours ago
0 OBJECT G
1 40905U 15049G   24361.50281235  .00023117  00000-0  64229-3 0  9999
2 40905  97.5152  13.6230 0010913  30.2078 329.9793 15.36822840513165
Epoch: 2024-12-26T12:04Z
Definitive object data (Epoch: 2024-12-26T12:04:02.987Z)
Latitude
Longitude97.12927°
Altitude452.165 km
Speed7.645 km/s
True Right ascension00h 54m 29s
True Declination0° 00' 00"
Sunlit
Object was in daylight at TLE epoch
Visualization TLE readout
Latitude-76.04447°
Longitude129.44675°
Altitude485.06 km
Speed7.62 km/s
Apparent Right ascension08h 44m 16s
Apparent Declination-66° 04' 20"
Sunlit
Object is in daylight
Visualization observer readout
Local Sidereal Time22:03:12
Azimuth163.287° S
Elevation-61.561°
Doppler factor1
Orbital elements
Apogee altitude459.914 km
Perigee altitude445.005 km
Semi-major axis6,830.597 km
Eccentricity0.0010913
Inclination97.5152°
RAAN13.623°
Arg. of periapsis30.2078°
True anomaly329.91666°
Mean anomaly329.9793°
Eccentric anomaly329.94799°
Mean motion3.84464 °/min
BSTAR0.00064229
Orbital period93.64 mins
Loading maneuver chart data...
Loading historical data...
Loading historical data...
Loading historical data...
Loading historical data...
Loading historical data...
Loading historical data...
Loading historical data...

OBJECT G Visibility forecast

Observer location: undefined°, undefined

Span
Click to sort rows by Start time (UTC) header in descending order
Start Az.
Max El. time (UTC)
Max El. Az.
Max El.
End time (UTC)
End Az.
5 mins2024-12-27 00:42:00.897Z142.283° SSE2024-12-27 00:45:00.897Z65.841° ENE32.525°2024-12-27 00:47:00.897Z11.122° NNE
4 mins2024-12-27 13:39:00.897Z37.395° NE2024-12-27 13:41:00.897Z121.786° SE35.593°2024-12-27 13:43:00.897Z169.904° S
|